This is the latest recevied weather packets stored in our database for station/object KD8JAM. If no packets are shown the sender has not sent any weather packets the latest 10 day(s).
| Time | Temp. | Humidity | Pressure | Rain* | Wind** | Luminosity | Snow |
|---|---|---|---|---|---|---|---|
| 1778016587 | 1.67° C | 78% | 1009.3 hPa | 0 mm | - | 287 W/m² | - |
| 1778016283 | 1.67° C | 78% | 1009.3 hPa | 0 mm | - | 278 W/m² | - |
| 1778015980 | 1.67° C | 77% | 1009.5 hPa | 0 mm | - | 263 W/m² | - |
| 1778015678 | 1.67° C | 78% | 1009.2 hPa | 0 mm | - | 271 W/m² | - |
| 1778015374 | 1.67° C | 77% | 1009.6 hPa | 0 mm | - | 298 W/m² | - |
| 1778015071 | 1.67° C | 77% | 1009.5 hPa | 0 mm | - | 271 W/m² | - |
| 1778014767 | 1.67° C | 78% | 1009.1 hPa | 0 mm | - | 262 W/m² | - |
| 1778014466 | 1.67° C | 78% | 1009.3 hPa | 0 mm | - | 230 W/m² | - |
| 1778014162 | 1.67° C | 79% | 1009.3 hPa | 0 mm | - | 214 W/m² | - |
| 1778013860 | 1.67° C | 78% | 1009.2 hPa | 0 mm | - | 236 W/m² | - |
| 1778013558 | 1.67° C | 78% | 1009.4 hPa | 0 mm | - | 250 W/m² | - |
| 1778013254 | 1.67° C | 79% | 1009.1 hPa | 0 mm | - | 258 W/m² | - |
| 1778012950 | 1.67° C | 79% | 1009 hPa | 0 mm | - | 280 W/m² | - |
| 1778012646 | 1.67° C | 78% | 1008.9 hPa | 0 mm | - | 356 W/m² | - |
| 1778012343 | 2.22° C | 78% | 1009 hPa | 0 mm | - | 403 W/m² | - |
| 1778012040 | 2.22° C | 77% | 1008.9 hPa | 0 mm | - | 337 W/m² | - |
| 1778011739 | 2.78° C | 77% | 1009.1 hPa | 0 mm | - | 400 W/m² | - |
| 1778011435 | 2.78° C | 75% | 1009 hPa | 0 mm | - | 522 W/m² | - |
| 1778011131 | 2.22° C | 78% | 1008.8 hPa | 0 mm | - | 766 W/m² | - |
| 1778010828 | 2.22° C | 78% | 1008.8 hPa | 0 mm | - | 328 W/m² | - |
| 1778010525 | 2.22° C | 76% | 1008.7 hPa | 0 mm | - | 327 W/m² | - |
| 1778010223 | 2.22° C | 77% | 1008.6 hPa | 0 mm | - | 301 W/m² | - |
| 1778009918 | 2.22° C | 76% | 1008.6 hPa | 0 mm | - | 294 W/m² | - |
| 1778009616 | 2.22° C | 78% | 1008.8 hPa | 0 mm | - | 862 W/m² | - |
| 1778009313 | 1.67° C | 80% | 1008.2 hPa | 0 mm | - | 781 W/m² | - |
* Rain latest hour (hover to see other rain measurements)
** Current wind speed in m/s (hover to see current wind gust speed)